FLOCK 2E-8

Last updated on Wed Jul 26 2017 00:15:06 GMT+0000 (Coordinated Universal Time)

1 41566U 98067JQ 17206.27883922 .05766721 12222-4 66905-3 0 9995 2 41566 51.6005 150.4905 0009036 238.6411 121.3730 16.35810441 66077

Satellite not in orbit